Location: Round Knob
(37.2473°N, 88.7376°W)
Time: 11:05:23
(UTC+00:00)

CZ-4B R/B - Pass Details

Date: 29 October 2020
Orbit: 388 x 461 km, 97.6° (Epoch: 04 December)

Event Time Altitude Azimuth Distance (km) Brightness Sun altitude
Rises 23:24:13 0° 13° (NNE) 2,363 4.8 -5.5°
Reaches altitude 10° 23:26:14 10° 15° (NNE) 1,483 3.8 -5.9°
Maximum altitude 23:29:24 77° 101° (E) 418 1.1 -6.5°
Drops below altitude 10° 23:32:27 10° 189° (S) 1,437 4.2 -7.1°
Sets 23:34:24 0° 190° (S) 2,281 5.3 -7.5°
